Location: Newark
(41.6500°N, 71.4833°W)
Time: 13:37:26
(UTC+00:00)

Courier 1B - Pass Details

Date: 27 January 2020
Orbit: 962 x 1209 km, 28.3° (Epoch: 25 February)

Event Time Altitude Azimuth Distance (km) Brightness Sun altitude
Rises 08:48:12 0° 248° (WSW) 3,868 - -36.4°
Reaches altitude 10° 08:51:16 10° 237° (WSW) 2,953 - -35.8°
Maximum altitude 08:57:20 29° 181° (S) 1,961 - -34.7°
Exits shadow 08:58:16 28° 169° (SSE) 1,999 9.1 -34.5°
Drops below altitude 10° 09:03:40 10° 125° (SE) 3,090 10.6 -33.5°
Sets 09:06:58 0° 115° (ESE) 4,078 11.6 -32.9°
